Regional Weather Roundup
Issued by NWS State College, PA

Home | Current Version | Previous Version | Graphics & Text | Print | Product List | Glossary Off
Versions: 1 2 3 4 5 6 7 8 9 10 11 12 13 14 15 16 17 18 19 20 21 22 23 24 25 26 27 28 29 30 31 32 33 34 35 36 37 38 39 40 41 42 43 44 45 46 47 48 49 50

000
ASUS41 KCTP 250910
RWRCTP

REGIONAL WEATHER ROUNDUP
NATIONAL WEATHER SERVICE STATE COLLEGE PA
500 AM EDT TUE APR 25 2017

Note: "fair" indicates few or no clouds below 12,000 feet with no
significant weather and/or obstructions to visibility.

* = STATION THAT DOES NOT REPORT PRECIPITATION /E.G. RAIN...SNOW...ETC/
    THUNDER OR FOG.

PAZ002>004-007>009-013>016-020>023-029>032-251000-
WESTERN PENNSYLVANIA

CITY           SKY/WX    TMP DP  RH WIND       PRES   REMARKS
ERIE           LGT RAIN  56  43  61 SE7       29.91S
MEADVILLE      CLOUDY    53  39  59 VRB5      29.91R
FRANKLIN*      CLOUDY    52  36  54 SE10G17   29.93R
NEW CASTLE     CLOUDY    54  41  61 SE8       29.91R
BEAVER COUNTY  NOT AVBL
BUTLER*        PTCLDY    54  43  66 E9        29.91F
PITTSBURGH INT CLOUDY    53  47  79 SE14      29.88F
PITTSBURGH     LGT RAIN  51  44  77 E10G20    29.89S
INDIANA*       MOCLDY    50  43  76 SE14G22   29.95S
LATROBE        LGT RAIN  48  46  93 N10       29.93S
WASHINGTON CO* CLOUDY    52  45  76 E6        29.90S
$$

PAZ004>006-010>012-017>019-024>028-033>037-041-042-045-046-049>053-251000-
CENTRAL PENNSYLVANIA

CITY           SKY/WX    TMP DP  RH WIND       PRES   REMARKS
BRADFORD       CLOUDY    51  34  52 SE12      29.96S
DUBOIS         CLOUDY    51  35  54 E13       29.94R
CLEARFIELD     LGT RAIN  50  42  74 NE5       29.98S
JOHNSTOWN      CLOUDY    46  42  86 E12G21    29.93S
ALTOONA        LGT RAIN  50  44  80 E9        29.97S
STATE COLLEGE  CLOUDY    53  40  61 E9        29.99S
WILLIAMSPORT   CLOUDY    56  42  59 NE6       30.00S
SELINSGROVE    CLOUDY    53  43  68 CALM      30.00F
FT INDIANTOWN  NOT AVBL
CAPITAL CITY   LGT RAIN  52  43  71 E7        29.99S
HARRISBURG     CLOUDY    52  44  74 E6        29.98S
YORK           CLOUDY    51  46  83 NE7       29.97S
$$

PAZ038>040-043-044-047-048-054-055-060>062-067>071-251000-
EASTERN PENNSYLVANIA

CITY           SKY/WX    TMP DP  RH WIND       PRES   REMARKS
SCRANTON       LGT RAIN  55  36  48 NE10      30.02S
MOUNT POCONO   LGT RAIN  47  36  65 E15       30.04S
ALLENTOWN      CLOUDY    54  40  59 E14       30.03S
QUAKERTOWN*    CLOUDY    52  46  82 E9        30.03S
READING        CLOUDY    54  46  74 NE9       29.99F
LANCASTER      LGT RAIN  52  49  89 E9        30.00R
COATESVILLE    LGT RAIN  50  50 100 NE5G13    29.99S
POTTSTOWN      CLOUDY    52  48  86 E10G17    30.01F
BLUE BELL      CLOUDY    50  50 100 NE15      30.01F
DOYLESTOWN     CLOUDY    51  48  89 NE9       30.01S
WILLOW GROVE   NOT AVBL
NORTH PHILA    CLOUDY    53  50  89 E12       30.02S FOG
PHILADELPHIA   LGT RAIN  53  51  93 NE14G22   29.99F FOG
$$




USA.gov is the U.S. government's official web portal to all federal, state and local government web resources and services.